This demonstration page uses our WeatherBlox Daily Observations layout. Learn more.

Left ArrowRight Arrow

34.16533, -84.80231

Hourly Observations for July 21, 2016

Temp ( °F °C ) Dew Point ( °F °C ) Humidity (%) Winds ( mph kmh ) Pressure ( in mb ) Visibility ( mi km ) Precip ( " mm )
12:53 am 00:53 Mostly Cloudy 79 26.1 71 21.7 77 77 Calm 30.11 1020 10 16 0.00 0.00
1:53 am 01:53 Mostly Cloudy 77 25 71 21.7 82 82 Calm 30.09 1019 10 16 0.00 0.00
2:53 am 02:53 Clear 77 25 70 21.1 79 79 Calm 30.07 1018 10 16 0.00 0.00
3:53 am 03:53 Clear 76 24.4 71 21.7 85 85 NE 3 6 30.08 1019 10 16 0.00 0.00
4:53 am 04:53 Clear 76 24.4 70 21.1 82 82 E 3 6 30.07 1018 10 16 0.00 0.00
5:53 am 05:53 Clear 75 23.9 69 20.6 82 82 ESE 3 6 30.09 1019 10 16 0.00 0.00
6:53 am 06:53 Sunny 75 23.9 69 20.6 82 82 E 3 6 30.11 1020 10 16 0.00 0.00
7:53 am 07:53 Sunny 76 24.4 69 20.6 79 79 E 3 6 30.13 1020 10 16 0.00 0.00
8:53 am 08:53 Sunny 77 25 69 20.6 77 77 ESE 3 6 30.15 1021 10 16 0.00 0.00
9:53 am 09:53 Sunny 79 26.1 70 21.1 74 74 VRB 3 6 30.16 1021 10 16 0.00 0.00
10:53 am 10:53 Sunny 83 28.3 71 21.7 67 67 SE 7 11 30.15 1021 10 16 0.00 0.00
11:53 am 11:53 Sunny 88 31.1 72 22.2 59 59 VRB 3 6 30.14 1021 10 16 0.00 0.00
12:53 pm 12:53 Sunny 90 32.2 72 22.2 56 56 SSE 3 6 30.12 1020 10 16 0.00 0.00
1:53 pm 13:53 Sunny 93 33.9 72 22.2 50 50 NE 3 6 30.09 1019 10 16 0.00 0.00
2:53 pm 14:53 Sunny with Nearby Thunderstorms 96 35.6 68 20 40 40 VRB 3 6 30.05 1018 10 16 0.00 0.00
3:41 pm 15:41 Sunny 90 32.2 68 20 48 48 SSW 6 9 30.03 1017 10 16 0.00 0.00
3:53 pm 15:53 Sunny 89 31.7 67 19.4 48 48 VRB 6 9 30.05 1018 10 16 0.00 0.00
4:10 pm 16:10 Sunny with Nearby Thunderstorms 93 33.9 68 20 44 44 SSW 7 11 30.03 1017 10 16 0.00 0.00
4:45 pm 16:45 Mostly Cloudy with Thunderstorms 85 29.4 69 20.6 59 59 NE 6 9 30.06 1018 10 16 0.00 0.00
4:53 pm 16:53 Mostly Cloudy with Thunderstorms 85 29.4 69 20.6 59 59 NNE 9 15 30.09 1019 10 16 0.00 0.00
5:14 pm 17:14 Mostly Cloudy with Thunderstorms 77 25 73 22.8 88 88 VRB 3 6 30.09 1019 2 3 0.05 1.27
5:20 pm 17:20 Mostly Cloudy with Thunderstorms 77 25 73 22.8 88 88 VRB 3 6 30.06 1018 3 5 0.05 1.27
5:38 pm 17:38 Partly Cloudy 77 25 74 23.3 90 90 NE 3 6 30.09 1019 8 13 0.05 1.27
5:53 pm 17:53 Partly Cloudy with Nearby Thunderstorms 78 25.6 74 23.3 87 87 NNE 3 6 30.06 1018 10 16 0.05 1.27
6:11 pm 18:11 Sunny 77 25 74 23.3 90 90 Calm 30.06 1018 7 11 0.00 0.00
6:53 pm 18:53 Sunny 79 26.1 74 23.3 85 85 E 7 11 30.05 1018 10 16 0.00 0.00
7:53 pm 19:53 Sunny 81 27.2 74 23.3 79 79 SE 5 7 30.06 1018 10 16 0.00 0.00
8:53 pm 20:53 Mostly Clear 79 26.1 72 22.2 79 79 Calm 30.08 1019 10 16 0.00 0.00
9:53 pm 21:53 Clear 76 24.4 71 21.7 85 85 E 3 6 30.09 1019 10 16 0.00 0.00
10:53 pm 22:53 Clear 75 23.9 71 21.7 88 88 Calm 30.11 1020 10 16 0.00 0.00

Powered by AerisWeather